Location: �terpigny
(49.8910°N, 2.9249°E)
Time: 06:15:57
(UTC+00:00)

Cosmos 1908 - Pass Details

Date: 04 June 2022
Orbit: 505 x 523 km, 82.5° (Epoch: 03 July)

Event Time Altitude Azimuth Distance (km) Brightness Sun altitude
Rises 22:47:29 0° 348° (NNW) 2,623 8.6 -16.4°
Reaches altitude 10° 22:49:37 10° 347° (NNW) 1,733 7.2 -16.5°
Maximum altitude 22:53:24 77° 262° (W) 528 3.1 -16.6°
Enters shadow 22:54:48 37° 183° (S) 808 3.6 -16.7°
